Location: Malvern Link
(52.1333°N, 2.3000°W)
Time: 15:04:14
(UTC+00:00)

Cosmos 1634 Rocket - Visible Passes

Search period start: 30 November 2021 00:00
Search period end: 10 December 2021 00:00
Orbit: 960 x 991 km, 82.9° (Epoch: 29 November)

Date Brightness Start Highest point End Pass type
(mag) Time Alt. Az. Time Alt. Az. Time Alt. Az.
30 Nov 5.6 04:05:39 10° N 04:11:14 32° ENE 04:16:44 10° SE visible
30 Nov 4.0 05:50:51 10° NNW 05:57:02 58° W 06:03:08 10° S visible
30 Nov 4.3 17:41:38 10° SSE 17:47:35 45° E 17:53:33 10° NNE visible
30 Nov 5.2 19:27:10 10° SW 19:33:04 40° WNW 19:39:02 10° N visible
01 Dec 6.7 02:47:42 10° NNE 02:49:57 12° NE 02:52:11 10° ENE visible
01 Dec 4.8 04:30:58 10° N 04:37:06 50° ENE 04:43:08 10° SSE visible
01 Dec 4.5 06:16:42 10° NNW 06:22:20 36° W 06:27:54 10° SSW visible
01 Dec 3.9 18:06:41 10° S 18:12:58 73° E 18:19:18 10° NNE visible
01 Dec 5.9 19:53:49 10° WSW 19:59:01 26° WNW 20:04:14 10° N visible
02 Dec 6.3 03:11:59 10° NNE 03:16:16 18° NE 03:20:29 10° E visible
02 Dec 4.0 04:56:26 10° N 05:02:47 79° E 05:09:03 10° SSE visible
02 Dec 5.1 06:42:51 10° NNW 06:47:28 22° W 06:52:04 10° SW visible
02 Dec 5.0 16:48:46 10° SE 16:53:42 25° E 16:58:39 10° NNE visible
02 Dec 4.2 18:32:12 10° SSW 18:38:31 72° WNW 18:44:53 10° N visible
02 Dec 6.4 20:21:11 10° W 20:25:10 17° NW 20:29:10 10° NNW visible
03 Dec 5.7 03:37:00 10° N 03:42:21 28° ENE 03:47:40 10° ESE visible
03 Dec 3.9 05:22:03 10° NNW 05:28:18 65° W 05:34:27 10° S visible
03 Dec 5.5 07:09:45 10° NW 07:12:27 13° WNW 07:15:07 10° W visible
03 Dec 4.5 17:13:05 10° SSE 17:18:53 40° E 17:24:43 10° NNE visible
03 Dec 5.0 18:58:13 10° SW 19:04:14 45° WNW 19:10:19 10° N visible
03 Dec 6.8 20:50:01 10° WNW 20:51:30 11° NW 20:53:01 10° NNW visible
04 Dec 6.8 02:19:49 10° NE 02:20:58 10° NE 02:22:06 10° ENE visible
04 Dec 5.0 04:02:15 10° N 04:08:16 44° ENE 04:14:12 10° SE visible
04 Dec 4.3 05:47:51 10° NNW 05:53:39 40° W 05:59:22 10° SSW visible
04 Dec 4.0 17:38:00 10° S 17:44:15 65° E 17:50:30 10° NNE visible
04 Dec 5.8 19:24:44 10° WSW 19:30:09 29° WNW 19:35:36 10° N visible
05 Dec 6.4 02:45:47 15° NE 02:47:20 17° NE 02:51:10 10° E visible
05 Dec 4.1 04:30:38 29° N 04:34:00 71° ENE 04:40:14 10° SSE visible
05 Dec 4.9 06:15:29 16° NW 06:18:49 25° W 06:23:42 10° SW visible
05 Dec 4.1 18:03:24 10° SSW 18:09:45 80° W 18:16:08 10° N visible
05 Dec 6.3 19:51:54 10° W 19:56:15 19° WNW 20:00:36 10° NNW visible
06 Dec 5.8 03:13:24 25° ENE 03:13:29 25° ENE 03:18:33 10° ESE visible
06 Dec 3.8 04:58:13 56° NNW 04:59:34 74° W 05:05:46 10° S visible
06 Dec 5.4 06:43:02 15° WNW 06:43:50 15° WNW 06:47:08 10° WSW visible
06 Dec 4.6 16:44:35 10° SSE 16:50:13 35° E 16:55:52 10° NNE visible
06 Dec 4.8 18:29:17 10° SSW 18:35:26 51° WNW 18:41:36 10° N visible
06 Dec 6.7 20:20:08 10° WNW 20:22:33 12° NW 20:24:57 10° NNW visible
07 Dec 5.3 03:40:44 35° E 03:40:44 35° E 03:45:14 10° SE visible
07 Dec 4.2 05:25:32 44° WSW 05:25:32 44° WSW 05:30:48 10° SSW visible
07 Dec 4.1 17:09:21 10° S 17:15:31 57° E 17:21:42 10° NNE visible
07 Dec 5.6 18:55:41 10° SW 19:01:17 32° WNW 19:06:56 10° N visible
08 Dec 5.1 04:07:53 35° SE 04:07:53 35° SE 04:11:23 10° SSE visible
08 Dec 5.2 05:52:41 21° WSW 05:52:41 21° WSW 05:55:18 10° SW visible
08 Dec 4.0 17:34:39 10° S 17:41:00 89° WNW 17:47:22 10° N visible
08 Dec 6.2 19:22:40 10° WSW 19:27:20 21° WNW 19:32:01 10° N visible
09 Dec 5.5 04:34:53 23° S 04:34:53 23° S 04:37:02 10° S visible
09 Dec 4.7 18:00:25 10° SSW 18:06:38 57° WNW 18:12:52 10° N visible
09 Dec 6.6 19:50:33 10° W 19:53:35 14° NW 19:56:37 10° NNW visible
